Theta_e
344 339 334 329 316 315 302 307 313 312 314 322 322 317 315 318 316 307 326 341 344 343 348 349 356 354 352 352 352 352 354 353 352 352 352 352 351 350 349 349 349 349 349 349 349 349 349 349 348
336 336 331 323 309 300 300 311 309 314 319 323 323 321 319 315 325 326 332 342 338 337 337 347 356 355 353 352 351 352 352 352 353 352 352 352 351 350 349 349 349 349 349 349 348 348 349 349 349
339 340 328 317 312 297 299 310 313 316 322 322 322 326 321 319 327 327 341 344 344 343 337 342 357 356 355 353 352 352 353 354 353 350 350 350 350 349 348 347 346 345 345 346 348 348 347 347 347
332 331 329 313 308 310 307 313 317 318 320 323 323 320 326 332 331 334 343 347 342 335 341 344 358 357 356 355 354 352 351 352 350 349 349 348 348 346 346 342 339 338 340 341 344 345 346 346 346
333 326 313 310 311 314 317 320 321 321 322 322 322 318 321 332 337 338 342 347 341 341 345 348 359 358 356 354 352 352 351 350 349 348 346 346 344 342 341 336 335 333 334 335 336 338 339 340 342
319 323 309 305 310 316 318 323 324 323 323 325 324 320 322 335 336 337 337 335 347 347 347 349 356 357 354 354 353 351 349 346 344 344 344 344 341 338 335 333 332 331 331 332 333 334 335 337 338
317 313 309 310 310 314 317 325 323 322 324 323 327 323 327 332 337 332 325 323 321 321 328 347 349 351 354 352 351 346 344 343 342 343 344 342 341 339 333 330 331 331 332 333 333 334 336 339 340
321 318 312 311 308 312 320 323 326 325 322 328 333 322 321 332 331 324 322 320 318 319 323 322 342 346 344 344 347 347 344 342 342 338 339 340 343 343 338 336 331 331 332 333 337 340 342 342 341
326 311 309 311 311 315 321 320 327 331 325 327 325 327 331 326 322 319 317 318 318 321 323 326 328 328 340 341 341 345 344 341 334 330 336 327 322 321 327 330 331 332 333 340 340 340 340 338 334
319 308 312 318 319 317 321 321 324 324 324 324 326 330 325 322 319 316 315 315 315 317 321 326 328 328 327 336 337 332 331 327 323 323 324 322 322 326 329 331 338 335 335 335 337 338 336 329 320
316 309 315 319 320 321 320 322 325 322 321 325 324 322 320 319 317 316 316 315 314 316 321 324 325 326 327 327 325 324 323 325 324 322 323 322 323 321 323 322 321 320 328 322 323 321 321 319 320
312 318 319 320 323 321 319 324 323 324 323 329 328 322 319 318 317 317 316 316 316 316 318 322 324 325 326 325 325 322 321 321 322 321 323 320 321 319 319 321 319 318 318 319 319 319 319 320 320
314 318 319 320 323 323 326 323 323 324 330 330 327 322 318 318 318 319 319 320 319 317 317 321 322 323 323 321 323 322 321 321 322 321 322 321 320 318 318 319 319 317 319 320 317 318 318 320 320
320 318 318 318 320 324 323 322 324 327 332 329 324 320 319 320 321 320 320 319 320 319 317 320 321 321 323 321 321 319 320 320 322 321 320 322 319 317 318 319 317 317 318 316 315 316 317 317 318
320 313 317 317 321 321 324 318 321 329 331 327 325 321 321 321 324 322 322 321 320 320 318 317 321 320 319 321 320 318 319 320 320 321 319 321 320 318 318 318 318 317 319 315 315 315 316 317 318
316 316 310 317 321 321 315 310 324 329 328 325 326 322 321 322 324 325 325 323 322 321 319 318 323 321 319 319 320 318 318 319 320 320 319 321 319 320 317 317 316 317 317 315 312 312 313 314 314
312 308 310 314 320 319 316 312 323 327 327 323 324 324 322 322 323 325 326 324 323 322 319 319 319 319 320 320 320 320 318 318 320 319 319 319 320 321 316 316 315 316 316 314 313 312 311 311 312
305 309 310 311 316 316 314 315 322 326 326 324 324 326 322 322 322 325 325 325 324 322 321 319 319 319 320 319 320 319 319 318 319 318 319 319 319 320 316 316 314 315 314 313 311 310 312 310 311
313 309 309 314 316 309 310 317 320 323 324 323 323 324 325 325 325 327 326 326 326 323 320 319 318 318 319 316 315 316 315 316 319 318 320 319 318 319 316 315 313 314 312 310 311 310 309 307 310
310 307 305 311 315 309 311 315 321 321 321 320 324 325 326 323 325 325 325 326 326 323 320 319 319 318 318 320 319 317 317 318 318 319 320 319 318 317 317 315 313 314 311 310 309 308 306 305 307
308 306 307 311 313 314 312 308 317 321 321 321 322 327 324 324 324 324 325 325 326 323 321 319 318 318 317 320 320 319 321 320 315 317 316 318 318 318 317 315 315 313 311 309 308 308 307 304 307
305 313 312 311 309 302 313 298 313 317 318 320 320 322 322 326 326 326 325 325 326 326 323 320 318 319 318 319 319 316 316 312 316 315 316 319 318 317 318 316 315 313 311 309 308 311 309 307 303
308 315 312 312 307 306 308 300 309 315 314 316 319 321 323 327 327 326 326 327 329 325 323 321 319 318 318 319 318 316 314 314 316 315 316 315 317 317 318 316 314 312 311 310 309 310 307 307 306
316 313 312 310 306 297 305 302 305 309 314 317 320 322 324 324 328 328 327 328 326 325 323 321 319 318 319 319 319 316 315 314 314 316 316 313 315 315 315 316 314 313 311 311 311 311 309 307 308
312 306 297 295 299 298 308 304 304 312 314 314 320 320 321 324 326 327 325 325 324 322 321 321 321 318 318 317 317 317 316 316 316 316 314 314 315 314 313 314 313 313 313 315 313 311 310 308 307
308 306 297 292 294 297 308 302 307 315 316 319 319 320 320 319 325 324 325 324 324 323 321 322 320 319 318 317 317 317 317 316 318 316 315 315 316 314 315 315 314 314 314 311 313 312 310 311 309
308 302 309 302 301 298 300 308 312 315 316 318 317 318 318 319 323 323 324 324 325 325 323 321 320 320 318 318 317 317 317 315 315 315 315 315 316 318 315 319 315 314 315 315 316 314 313 313 311
310 312 303 303 292 292 299 301 301 308 313 316 316 315 319 321 324 324 325 325 325 326 324 320 320 319 318 318 317 318 318 316 316 316 316 316 316 316 317 317 316 315 316 316 315 315 313 312 312
307 308 308 306 302 295 295 297 310 309 311 312 312 316 319 319 323 325 324 326 327 325 324 320 317 319 318 318 318 318 317 317 317 315 315 317 316 318 317 320 317 317 316 314 313 312 313 314 310
312 309 308 301 299 301 300 299 316 312 314 316 316 320 321 322 323 326 324 325 325 324 323 321 317 318 318 319 319 317 316 317 316 317 318 318 317 317 318 317 318 317 315 315 315 314 315 312 311
Wind_Speed
6 7 4 2 4 1 3 9 15 12 15 18 21 17 15 14 7 9 4 17 18 12 9 7 7 5 4 5 5 6 6 6 7 8 9 10 11 11 11 11 12 12 11 11 10 9 9 8 9
2 8 1 4 2 1 2 11 14 15 15 18 20 15 18 19 14 6 11 18 15 8 3 7 8 5 4 3 3 4 4 5 6 8 9 9 10 10 12 12 13 13 13 13 12 11 11 10 9
5 12 5 6 2 4 5 7 13 16 17 17 10 14 7 8 10 6 15 16 13 6 4 4 9 7 6 4 2 2 4 5 7 8 9 9 10 10 10 12 14 14 14 14 13 12 11 11 11
6 9 5 4 10 9 6 10 20 21 19 19 13 11 13 12 5 7 14 14 11 8 6 3 9 8 6 5 4 4 4 6 9 8 8 8 7 8 9 10 12 13 13 13 14 13 12 12 12
4 7 8 10 10 8 13 16 19 22 11 17 12 11 8 7 9 7 16 14 13 6 4 4 7 7 6 6 7 7 8 9 8 8 7 7 6 6 8 9 11 13 12 12 13 12 13 13 13
7 5 4 4 14 10 8 21 27 20 14 11 8 10 4 6 8 7 12 12 13 10 6 5 8 10 7 11 11 11 10 10 9 8 7 6 4 3 4 5 10 12 13 13 12 11 13 13 14
10 10 7 10 7 5 10 17 13 15 17 3 2 9 5 7 6 13 14 14 13 12 9 5 6 8 10 13 13 13 13 10 8 8 12 9 5 4 2 1 7 9 10 11 12 12 12 12 13
7 4 6 5 10 0 9 9 14 14 6 8 8 2 4 2 15 15 14 13 11 9 9 8 5 5 5 6 13 14 13 11 14 15 17 16 3 7 10 1 6 8 10 11 13 15 14 15 17
6 5 2 5 5 4 11 10 4 14 14 7 6 5 7 14 14 13 10 10 8 8 8 8 8 5 5 6 7 10 13 16 14 11 17 12 5 7 10 3 5 8 10 9 14 16 12 16 15
8 6 14 18 11 13 13 15 15 13 15 11 8 7 14 14 12 11 9 7 7 7 6 7 8 8 6 4 5 4 7 7 4 7 7 6 6 8 12 11 16 15 17 18 17 17 13 11 5
1 5 7 5 9 15 11 13 11 14 13 13 13 13 11 11 9 10 8 7 7 5 6 8 7 7 8 7 4 3 4 4 4 7 6 6 4 5 5 4 4 5 12 6 7 6 4 7 5
10 10 9 9 17 12 10 13 11 10 7 11 12 12 13 10 9 9 9 8 7 7 6 7 8 6 7 4 4 4 3 4 3 4 6 5 3 5 5 5 5 4 4 7 5 4 9 8 7
9 10 10 9 15 12 14 10 10 9 13 11 13 14 11 9 8 9 10 8 8 7 6 6 7 7 5 6 4 3 3 4 4 5 5 3 4 5 5 6 4 5 5 6 5 7 8 10 12
4 7 9 4 7 10 14 12 9 8 11 12 13 11 9 10 10 9 9 8 7 6 6 5 7 6 5 3 5 4 4 4 5 4 4 6 4 4 4 5 4 5 4 4 5 7 7 8 9
9 9 8 5 7 7 14 9 10 11 13 13 13 13 11 12 13 10 9 8 7 5 5 6 4 5 5 5 4 3 3 3 5 4 6 7 4 6 6 4 5 5 4 5 6 7 8 8 9
8 7 6 8 6 2 5 3 15 13 13 10 13 14 12 11 13 12 10 9 8 7 7 5 5 4 2 2 2 2 1 1 4 4 5 6 6 7 6 4 5 6 4 4 5 5 7 7 6
7 4 6 13 10 6 6 4 16 13 12 12 9 9 10 12 12 11 12 10 9 8 8 5 5 4 4 4 3 4 2 2 4 4 4 5 5 6 5 4 5 6 4 5 5 4 3 6 7
7 7 11 12 8 7 13 8 17 16 13 13 13 9 12 14 13 10 13 12 9 9 8 7 4 3 5 1 3 2 2 4 3 4 4 6 4 6 5 5 5 5 4 5 4 5 6 5 7
8 9 14 15 13 2 2 8 19 17 14 11 11 12 11 14 13 10 14 12 11 9 8 8 6 3 3 3 3 3 1 2 2 3 6 6 5 5 5 3 5 5 4 3 5 4 5 5 8
2 3 5 7 4 5 7 3 16 18 14 9 18 14 13 14 16 14 14 12 11 10 9 8 7 2 1 2 1 1 3 2 2 3 4 5 6 4 4 3 3 4 4 6 5 5 3 3 4
3 3 6 11 5 4 5 10 19 15 11 9 10 16 13 21 18 15 14 12 13 12 10 9 8 7 2 2 1 2 2 2 3 2 0 2 6 5 5 5 4 5 4 2 3 4 5 3 4
2 2 5 17 8 4 5 7 3 13 14 14 12 12 12 18 17 15 15 14 13 11 11 10 8 7 4 3 2 3 1 2 1 2 2 1 6 5 5 5 5 5 2 3 2 3 2 3 3
3 8 13 9 6 4 1 3 17 21 8 12 12 13 14 20 21 18 17 15 15 14 11 10 9 8 6 4 3 2 2 1 1 2 4 5 4 6 4 5 4 3 1 1 1 3 3 1 1
4 6 4 4 4 4 7 7 7 8 12 12 10 11 15 18 19 18 17 15 15 13 12 10 10 8 8 7 6 5 3 1 2 3 2 2 2 2 3 4 3 1 2 2 1 2 2 1 2
7 8 5 6 2 6 2 6 11 12 6 5 12 10 7 17 17 16 17 15 16 15 13 11 10 8 8 8 7 7 5 3 4 2 1 3 2 2 2 3 2 1 1 2 2 2 4 3 2
2 6 6 4 3 5 2 4 5 8 8 10 8 6 8 10 17 16 20 15 14 13 14 13 11 9 9 8 7 7 6 2 3 3 2 1 1 1 3 3 3 2 2 0 1 1 2 4 3
1 6 5 2 4 4 3 6 8 17 19 8 6 2 8 8 14 19 17 13 14 11 11 14 12 10 9 8 7 7 6 5 4 5 3 2 2 2 1 3 4 4 5 5 4 3 4 4 4
8 2 12 9 4 4 6 4 6 7 13 12 6 7 1 8 18 17 16 15 10 11 8 11 10 9 9 8 7 6 7 7 5 4 6 5 4 3 3 5 5 5 6 5 6 5 5 5 4
7 5 4 4 3 1 2 7 7 7 6 6 6 6 14 29 17 17 16 13 13 10 10 8 9 9 8 8 7 7 7 6 5 5 4 7 5 5 5 5 6 6 6 5 6 7 7 6 5
6 10 9 5 5 3 2 7 6 4 6 3 6 10 9 25 12 18 18 16 14 12 10 10 8 9 9 9 7 8 7 6 5 5 5 5 7 6 6 6 6 6 6 7 6 8 7 7 6
Wind_Direction
140 167 188 291 29 51 63 73 93 82 69 73 71 74 73 53 72 121 60 108 111 125 159 144 136 116 88 68 50 40 33 25 15 11 10 8 8 7 10 9 6 2 356 352 342 331 322 317 315
189 199 209 297 0 258 82 101 103 109 112 100 84 84 66 84 79 82 73 99 97 86 12 149 140 142 115 92 68 39 26 18 7 9 3 8 11 15 15 10 7 359 356 350 343 341 337 328 318
112 40 56 8 26 128 116 117 125 125 105 95 75 54 66 104 63 109 127 123 121 127 255 168 151 172 158 147 117 60 29 14 11 14 9 18 30 27 23 19 13 5 357 350 350 352 345 336 324
107 24 61 31 296 52 95 108 110 96 85 96 113 66 63 69 77 88 138 110 122 163 215 230 164 173 162 151 103 70 46 26 33 29 29 36 37 40 45 32 20 8 359 353 349 351 346 338 331
56 63 37 335 289 360 49 68 75 77 72 72 76 102 102 107 118 107 116 137 135 175 201 218 166 161 152 112 88 79 71 63 49 43 41 39 41 48 51 36 14 355 351 345 339 335 334 330 325
58 79 40 343 335 340 72 83 86 82 75 79 90 118 128 123 115 103 78 115 150 168 162 134 148 142 133 108 101 90 81 69 60 50 35 24 357 27 54 40 13 11 359 354 347 334 330 321 315
120 109 193 263 251 274 89 75 96 107 128 151 250 112 128 118 136 90 72 60 49 52 100 113 123 120 124 106 111 109 95 79 59 35 7 330 268 287 262 155 12 7 350 345 338 334 325 314 309
112 106 140 213 232 178 108 85 124 112 64 112 186 186 143 84 74 77 68 63 54 45 50 53 122 120 132 127 134 119 111 95 55 26 5 7 9 289 347 267 357 336 324 329 322 325 324 349 357
98 85 115 277 197 144 122 120 92 129 147 194 196 154 100 83 72 69 70 61 51 46 55 40 25 48 140 139 141 120 115 83 62 39 13 12 353 17 346 340 315 308 317 352 350 348 16 2 346
106 129 174 212 199 121 117 110 141 151 135 128 131 105 80 79 78 72 68 70 61 45 54 53 27 21 39 108 134 144 90 88 75 46 16 10 8 13 2 3 8 12 10 1 355 351 3 357 333
143 176 102 130 132 107 109 117 120 129 129 149 142 108 96 73 73 81 68 74 83 56 59 62 43 22 14 17 56 42 54 101 75 59 31 21 13 12 352 343 2 10 359 349 339 344 345 335 327
85 63 79 86 96 93 108 143 114 115 148 112 108 103 96 91 98 96 83 66 61 49 58 61 43 20 25 18 27 68 64 84 88 67 42 32 25 4 352 354 356 6 344 329 339 352 343 329 321
19 83 61 70 122 118 115 112 112 105 98 106 115 110 121 135 116 107 109 91 69 50 35 85 63 25 28 20 7 29 18 72 112 65 43 47 40 8 356 345 348 356 356 350 1 5 353 348 337
307 41 35 333 93 120 119 128 134 140 131 144 136 137 132 136 122 103 98 103 95 74 28 36 88 48 27 33 10 39 21 64 90 66 36 34 47 17 359 343 5 357 5 359 9 2 351 337 338
58 22 6 337 150 130 144 167 138 149 156 165 150 143 146 133 117 121 121 118 129 120 77 36 123 93 49 6 53 49 1 46 95 88 47 33 43 20 6 351 12 353 24 1 20 2 355 346 336
55 68 353 284 138 233 104 190 149 166 177 173 166 156 156 145 137 138 141 136 125 122 109 87 34 71 70 16 301 123 359 74 87 90 65 29 41 29 11 10 8 351 42 23 13 359 350 337 332
2 101 234 296 214 165 186 181 165 178 196 171 176 166 158 139 148 157 148 145 139 125 111 102 66 351 331 282 284 196 167 106 125 98 83 49 49 40 25 24 11 6 28 18 10 347 356 341 343
172 165 222 215 191 185 192 209 164 178 204 172 173 183 168 157 162 161 145 143 138 127 125 118 110 336 329 353 27 51 19 80 137 120 103 70 63 54 35 30 15 23 34 7 3 3 355 353 345
172 195 189 212 230 188 333 162 174 176 207 192 172 186 192 179 162 156 149 145 141 137 129 137 111 341 17 30 31 8 358 271 141 108 114 99 83 59 48 50 13 11 64 6 21 337 358 351 345
23 40 287 323 197 93 21 196 185 180 198 185 169 197 197 140 160 165 153 158 155 154 143 129 137 108 22 90 310 220 260 277 108 123 119 133 109 91 73 76 17 31 55 17 19 23 348 328 354
268 271 54 72 15 70 14 326 167 194 191 193 180 188 157 163 164 169 167 162 158 154 148 144 147 153 164 25 326 349 355 14 29 59 150 180 126 103 89 61 48 44 75 32 5 6 33 353 324
254 209 85 43 56 306 33 308 338 173 199 202 195 183 168 169 169 173 169 167 165 160 150 144 146 146 158 98 50 24 139 60 332 173 302 276 126 95 92 74 63 59 104 39 5 10 344 22 350
232 74 100 95 120 80 106 113 334 334 222 209 197 187 190 173 172 177 171 170 157 155 155 149 149 147 154 154 138 98 59 95 282 356 3 31 105 107 102 98 75 51 104 319 30 345 330 25 303
68 105 33 65 99 22 236 119 240 212 233 227 198 196 188 167 173 172 169 157 152 158 151 159 152 164 171 174 181 167 148 226 333 327 349 14 130 160 126 104 86 93 10 12 272 286 287 319 305
45 48 351 3 342 243 99 61 233 269 246 29 188 189 183 170 167 170 161 160 158 158 162 164 160 168 175 178 178 169 183 211 243 267 150 42 42 241 158 127 133 273 257 68 38 327 250 280 298
112 146 148 237 310 261 183 216 229 279 23 20 359 185 149 149 165 160 157 157 156 158 168 166 171 171 175 175 181 169 175 193 161 152 162 168 16 242 201 168 173 244 197 179 326 282 269 274 277
104 24 179 149 310 18 157 307 301 62 63 27 281 60 188 183 162 155 159 152 161 163 174 165 172 172 172 177 166 173 182 189 207 202 198 219 218 263 301 316 217 231 248 247 203 251 275 262 264
112 34 21 351 358 315 332 297 251 136 169 220 253 268 72 193 164 164 160 161 158 164 165 162 173 168 171 169 171 185 186 196 212 196 216 215 241 242 269 283 288 238 254 235 223 241 263 262 265
24 39 85 189 212 154 273 265 231 191 171 156 42 8 31 359 177 161 142 148 153 155 163 163 162 158 167 173 184 180 183 200 201 208 223 206 222 237 249 262 268 274 263 265 233 245 252 252 251
143 177 155 158 256 205 193 291 21 112 127 85 321 67 10 6 309 146 149 155 161 160 166 172 174 159 177 182 170 178 187 192 204 214 234 216 219 240 232 251 261 269 272 274 247 246 255 251 260